Time,TemperatureF,DewpointF,PressureIn,WindDirection,WindDirectionDegrees,WindSpeedMPH,WindSpeedGustMPH,Humidity,HourlyPrecipIn,Conditions,Clouds,dailyrainin,SoftwareType,DateUTC
2013-10-23 00:02:00,48.9,43.6,29.75,NE,53,0.0,2.0,82,0.00,,,0.00,Wunderground v.1.15,2013-10-23 04:02:00,
2013-10-23 00:04:00,49.2,43.3,29.75,NE,53,0.0,3.0,80,0.00,,,0.00,Wunderground v.1.15,2013-10-23 04:04:00,
2013-10-23 00:05:00,49.4,43.2,29.75,NE,53,0.0,3.0,79,0.00,,,0.00,Wunderground v.1.15,2013-10-23 04:05:00,
2013-10-23 00:07:00,49.5,43.6,29.75,NE,53,0.0,3.0,80,0.00,,,0.00,Wunderground v.1.15,2013-10-23 04:07:00,
2013-10-23 00:13:00,49.6,42.7,29.75,NE,53,0.0,3.0,77,0.00,,,0.00,Wunderground v.1.15,2013-10-23 04:13:00,
2013-10-23 00:16:00,49.8,43.5,29.74,NE,53,0.0,3.0,79,0.00,,,0.00,Wunderground v.1.15,2013-10-23 04:16:00,
2013-10-23 00:21:00,49.6,43.4,29.74,NE,53,0.0,3.0,79,0.00,,,0.00,Wunderground v.1.15,2013-10-23 04:21:00,
2013-10-23 00:26:00,49.6,42.7,29.74,NE,53,0.0,3.0,77,0.00,,,0.00,Wunderground v.1.15,2013-10-23 04:26:00,
2013-10-23 00:32:00,49.6,42.3,29.74,NE,53,0.0,3.0,76,0.00,,,0.00,Wunderground v.1.15,2013-10-23 04:32:00,
2013-10-23 00:37:00,49.8,42.5,29.74,NE,53,0.0,2.0,76,0.00,,,0.00,Wunderground v.1.15,2013-10-23 04:37:00,
2013-10-23 00:43:00,49.8,42.9,29.74,NE,53,0.0,2.0,77,0.00,,,0.00,Wunderground v.1.15,2013-10-23 04:43:00,
2013-10-23 00:48:00,49.8,42.9,29.74,NE,53,0.0,2.0,77,0.00,,,0.00,Wunderground v.1.15,2013-10-23 04:48:00,
2013-10-23 00:55:00,49.2,42.6,29.74,NE,53,0.0,2.0,78,0.00,,,0.00,Wunderground v.1.15,2013-10-23 04:55:00,
2013-10-23 01:01:00,48.6,42.7,29.74,NE,53,0.0,2.0,80,0.00,,,0.00,Wunderground v.1.15,2013-10-23 05:01:00,
2013-10-23 01:07:00,48.0,42.8,29.74,NE,53,0.0,4.0,82,0.00,,,0.00,Wunderground v.1.15,2013-10-23 05:07:00,
2013-10-23 01:12:00,47.4,42.5,29.74,NE,53,0.0,4.0,83,0.00,,,0.00,Wunderground v.1.15,2013-10-23 05:12:00,
2013-10-23 01:18:00,46.8,42.2,29.73,NE,53,0.0,4.0,84,0.00,,,0.00,Wunderground v.1.15,2013-10-23 05:18:00,
2013-10-23 01:23:00,46.5,42.2,29.73,NE,53,0.0,4.0,85,0.00,,,0.00,Wunderground v.1.15,2013-10-23 05:23:00,
2013-10-23 01:29:00,46.1,42.1,29.73,NE,53,0.0,4.0,86,0.00,,,0.00,Wunderground v.1.15,2013-10-23 05:29:00,
2013-10-23 01:35:00,45.8,41.9,29.73,NE,53,0.0,0.0,86,0.00,,,0.00,Wunderground v.1.15,2013-10-23 05:35:00,
2013-10-23 01:40:00,45.8,42.4,29.73,NE,53,0.0,0.0,88,0.00,,,0.00,Wunderground v.1.15,2013-10-23 05:40:00,
2013-10-23 01:46:00,45.7,42.1,29.73,NE,53,0.0,0.0,87,0.00,,,0.00,Wunderground v.1.15,2013-10-23 05:46:00,
2013-10-23 01:51:00,45.7,41.8,29.73,NE,53,0.0,2.0,86,0.00,,,0.00,Wunderground v.1.15,2013-10-23 05:51:00,
2013-10-23 01:57:00,45.4,41.8,29.73,NE,53,0.0,0.0,87,0.00,,,0.00,Wunderground v.1.15,2013-10-23 05:57:00,
2013-10-23 02:03:00,45.1,41.5,29.73,NE,53,0.0,4.0,87,0.00,,,0.00,Wunderground v.1.15,2013-10-23 06:03:00,
2013-10-23 02:09:00,44.9,41.6,29.73,NE,53,0.0,4.0,88,0.00,,,0.00,Wunderground v.1.15,2013-10-23 06:09:00,
2013-10-23 02:15:00,44.8,41.2,29.73,NE,53,0.0,4.0,87,0.00,,,0.00,Wunderground v.1.15,2013-10-23 06:15:00,
2013-10-23 02:21:00,44.9,41.6,29.73,NE,53,0.0,4.0,88,0.00,,,0.00,Wunderground v.1.15,2013-10-23 06:21:00,
2013-10-23 02:26:00,45.2,41.6,29.73,NE,53,0.0,4.0,87,0.00,,,0.00,Wunderground v.1.15,2013-10-23 06:26:00,
2013-10-23 02:33:00,45.5,41.6,29.73,NE,53,0.0,4.0,86,0.00,,,0.00,Wunderground v.1.15,2013-10-23 06:33:00,
2013-10-23 02:38:00,45.5,41.6,29.73,NE,53,0.0,0.0,86,0.00,,,0.00,Wunderground v.1.15,2013-10-23 06:38:00,
2013-10-23 02:44:00,45.2,41.3,29.73,NE,53,0.0,0.0,86,0.00,,,0.00,Wunderground v.1.15,2013-10-23 06:44:00,
2013-10-23 02:49:00,44.8,40.9,29.72,NE,53,0.0,0.0,86,0.00,,,0.00,Wunderground v.1.15,2013-10-23 06:49:00,
2013-10-23 02:55:00,44.5,40.9,29.72,NE,53,0.0,0.0,87,0.00,,,0.00,Wunderground v.1.15,2013-10-23 06:55:00,
2013-10-23 03:01:00,44.2,40.9,29.72,NE,53,0.0,0.0,88,0.00,,,0.00,Wunderground v.1.15,2013-10-23 07:01:00,
2013-10-23 03:06:00,44.2,40.9,29.72,NE,53,0.0,2.0,88,0.00,,,0.00,Wunderground v.1.15,2013-10-23 07:06:00,
2013-10-23 03:12:00,43.9,40.6,29.72,NE,53,0.0,2.0,88,0.00,,,0.00,Wunderground v.1.15,2013-10-23 07:12:00,
2013-10-23 03:17:00,43.6,40.6,29.72,NE,53,0.0,2.0,89,0.00,,,0.00,Wunderground v.1.15,2013-10-23 07:17:00,
2013-10-23 03:23:00,43.5,40.5,29.72,NE,53,0.0,2.0,89,0.00,,,0.00,Wunderground v.1.15,2013-10-23 07:23:00,
2013-10-23 03:28:00,43.3,40.3,29.72,NE,53,0.0,2.0,89,0.00,,,0.00,Wunderground v.1.15,2013-10-23 07:28:00,
2013-10-23 03:34:00,43.2,40.5,29.71,NE,53,0.0,0.0,90,0.00,,,0.00,Wunderground v.1.15,2013-10-23 07:34:00,
2013-10-23 03:40:00,43.2,40.8,29.71,NE,53,0.0,0.0,91,0.00,,,0.00,Wunderground v.1.15,2013-10-23 07:40:00,
2013-10-23 03:45:00,43.3,40.8,29.71,NE,53,0.0,0.0,91,0.00,,,0.00,Wunderground v.1.15,2013-10-23 07:45:00,
2013-10-23 03:51:00,43.3,40.8,29.72,NE,53,0.0,0.0,91,0.00,,,0.00,Wunderground v.1.15,2013-10-23 07:51:00,
2013-10-23 03:56:00,43.2,40.5,29.72,NE,53,0.0,0.0,90,0.00,,,0.00,Wunderground v.1.15,2013-10-23 07:56:00,
2013-10-23 04:02:00,43.2,40.5,29.72,NE,53,0.0,0.0,90,0.00,,,0.00,Wunderground v.1.15,2013-10-23 08:02:00,
2013-10-23 04:08:00,43.1,40.7,29.72,NE,53,0.0,1.0,91,0.00,,,0.00,Wunderground v.1.15,2013-10-23 08:08:00,
2013-10-23 04:14:00,43.1,40.7,29.72,NE,53,0.0,0.0,91,0.00,,,0.00,Wunderground v.1.15,2013-10-23 08:14:00,
2013-10-23 04:19:00,43.2,40.8,29.71,NE,53,0.0,0.0,91,0.00,,,0.00,Wunderground v.1.15,2013-10-23 08:19:00,
2013-10-23 04:25:00,43.2,40.8,29.71,NE,53,0.0,0.0,91,0.00,,,0.00,Wunderground v.1.15,2013-10-23 08:25:00,
2013-10-23 04:30:00,43.3,40.8,29.71,NE,53,0.0,0.0,91,0.00,,,0.00,Wunderground v.1.15,2013-10-23 08:30:00,
2013-10-23 04:36:00,43.3,40.8,29.70,NE,53,0.0,1.0,91,0.00,,,0.00,Wunderground v.1.15,2013-10-23 08:36:00,
2013-10-23 04:41:00,43.2,40.8,29.70,NE,53,0.0,1.0,91,0.00,,,0.00,Wunderground v.1.15,2013-10-23 08:41:00,
2013-10-23 04:47:00,43.2,40.8,29.69,NE,53,0.0,1.0,91,0.00,,,0.00,Wunderground v.1.15,2013-10-23 08:47:00,
2013-10-23 04:53:00,43.1,40.7,29.69,NE,53,0.0,1.0,91,0.00,,,0.00,Wunderground v.1.15,2013-10-23 08:53:00,
2013-10-23 04:59:00,42.6,39.9,29.69,NE,53,0.0,1.0,90,0.00,,,0.00,Wunderground v.1.15,2013-10-23 08:59:00,
2013-10-23 05:05:00,42.2,39.5,29.69,NE,53,0.0,0.0,90,0.00,,,0.00,Wunderground v.1.15,2013-10-23 09:05:00,
2013-10-23 05:10:00,41.8,39.1,29.69,NE,53,0.0,0.0,90,0.00,,,0.00,Wunderground v.1.15,2013-10-23 09:10:00,
2013-10-23 05:16:00,41.6,38.9,29.70,NE,53,0.0,0.0,90,0.00,,,0.00,Wunderground v.1.15,2013-10-23 09:16:00,
2013-10-23 05:22:00,41.5,39.3,29.70,NE,53,0.0,0.0,92,0.00,,,0.00,Wunderground v.1.15,2013-10-23 09:22:00,
2013-10-23 05:28:00,41.5,39.3,29.70,NE,53,0.0,0.0,92,0.00,,,0.00,Wunderground v.1.15,2013-10-23 09:28:00,
2013-10-23 05:33:00,41.5,39.3,29.70,NE,53,0.0,0.0,92,0.00,,,0.00,Wunderground v.1.15,2013-10-23 09:33:00,
2013-10-23 05:40:00,41.6,39.4,29.70,NE,53,0.0,0.0,92,0.00,,,0.00,Wunderground v.1.15,2013-10-23 09:40:00,
2013-10-23 05:45:00,41.8,39.6,29.70,NE,53,0.0,0.0,92,0.00,,,0.00,Wunderground v.1.15,2013-10-23 09:45:00,
2013-10-23 05:52:00,41.8,39.6,29.70,NE,53,0.0,0.0,92,0.00,,,0.00,Wunderground v.1.15,2013-10-23 09:52:00,
2013-10-23 05:57:00,41.8,39.6,29.70,NE,53,0.0,0.0,92,0.00,,,0.00,Wunderground v.1.15,2013-10-23 09:57:00,
2013-10-23 06:03:00,41.8,39.6,29.70,NE,53,0.0,0.0,92,0.00,,,0.00,Wunderground v.1.15,2013-10-23 10:03:00,
2013-10-23 06:09:00,41.8,39.6,29.70,NE,53,0.0,0.0,92,0.00,,,0.00,Wunderground v.1.15,2013-10-23 10:09:00,
2013-10-23 06:15:00,41.8,39.6,29.70,NE,53,0.0,0.0,92,0.00,,,0.00,Wunderground v.1.15,2013-10-23 10:15:00,
2013-10-23 06:20:00,41.8,39.6,29.70,NE,53,0.0,0.0,92,0.00,,,0.00,Wunderground v.1.15,2013-10-23 10:20:00,
2013-10-23 06:26:00,41.9,39.7,29.70,NE,53,0.0,0.0,92,0.00,,,0.00,Wunderground v.1.15,2013-10-23 10:26:00,
2013-10-23 06:32:00,42.1,39.9,29.70,NE,53,0.0,0.0,92,0.00,,,0.00,Wunderground v.1.15,2013-10-23 10:32:00,
2013-10-23 06:37:00,42.1,39.7,29.70,NE,53,0.0,0.0,91,0.00,,,0.00,Wunderground v.1.15,2013-10-23 10:37:00,
2013-10-23 06:42:00,41.9,39.2,29.70,NE,53,0.0,0.0,90,0.00,,,0.00,Wunderground v.1.15,2013-10-23 10:42:00,
2013-10-23 06:49:00,41.6,38.6,29.70,NE,53,0.0,0.0,89,0.00,,,0.00,Wunderground v.1.15,2013-10-23 10:49:00,
2013-10-23 06:54:00,41.3,38.6,29.70,NE,53,0.0,0.0,90,0.00,,,0.00,Wunderground v.1.15,2013-10-23 10:54:00,
2013-10-23 07:00:00,41.3,38.6,29.70,NE,53,0.0,0.0,90,0.00,,,0.00,Wunderground v.1.15,2013-10-23 11:00:00,
2013-10-23 07:05:00,41.3,38.6,29.70,NE,53,0.0,0.0,90,0.00,,,0.00,Wunderground v.1.15,2013-10-23 11:05:00,
2013-10-23 07:11:00,41.2,38.5,29.70,NE,53,0.0,0.0,90,0.00,,,0.00,Wunderground v.1.15,2013-10-23 11:11:00,
2013-10-23 07:16:00,41.1,38.4,29.69,NE,53,0.0,0.0,90,0.00,,,0.00,Wunderground v.1.15,2013-10-23 11:16:00,
2013-10-23 07:21:00,41.2,38.5,29.69,NE,53,0.0,0.0,90,0.00,,,0.00,Wunderground v.1.15,2013-10-23 11:21:00,
2013-10-23 07:27:00,41.2,38.8,29.69,NE,53,0.0,0.0,91,0.00,,,0.00,Wunderground v.1.15,2013-10-23 11:27:00,
2013-10-23 07:33:00,41.1,38.4,29.69,NE,53,0.0,0.0,90,0.00,,,0.00,Wunderground v.1.15,2013-10-23 11:33:00,
2013-10-23 07:39:00,40.8,38.1,29.69,NE,53,0.0,0.0,90,0.00,,,0.00,Wunderground v.1.15,2013-10-23 11:39:00,
2013-10-23 07:50:00,40.5,37.8,29.70,NE,53,0.0,0.0,90,0.00,,,0.00,Wunderground v.1.15,2013-10-23 11:50:00,
2013-10-23 07:56:00,40.5,38.1,29.70,NE,53,0.0,0.0,91,0.00,,,0.00,Wunderground v.1.15,2013-10-23 11:56:00,
2013-10-23 08:01:00,40.8,38.4,29.70,NE,53,0.0,0.0,91,0.00,,,0.00,Wunderground v.1.15,2013-10-23 12:01:00,
2013-10-23 08:07:00,41.1,38.4,29.70,NE,53,0.0,1.0,90,0.00,,,0.00,Wunderground v.1.15,2013-10-23 12:07:00,
2013-10-23 08:13:00,41.2,38.5,29.70,NE,53,0.0,1.0,90,0.00,,,0.00,Wunderground v.1.15,2013-10-23 12:13:00,
2013-10-23 08:18:00,41.3,38.9,29.70,NE,53,0.0,1.0,91,0.00,,,0.00,Wunderground v.1.15,2013-10-23 12:18:00,
2013-10-23 08:24:00,41.6,39.2,29.70,NE,53,0.0,1.0,91,0.00,,,0.00,Wunderground v.1.15,2013-10-23 12:24:00,
2013-10-23 08:29:00,41.9,39.2,29.70,NE,53,0.0,1.0,90,0.00,,,0.00,Wunderground v.1.15,2013-10-23 12:29:00,
2013-10-23 08:35:00,42.3,39.6,29.70,NE,53,0.0,0.0,90,0.00,,,0.00,Wunderground v.1.15,2013-10-23 12:35:00,
2013-10-23 08:40:00,42.6,39.6,29.70,NE,53,0.0,0.0,89,0.00,,,0.00,Wunderground v.1.15,2013-10-23 12:40:00,
2013-10-23 08:46:00,43.1,39.5,29.71,NE,53,0.0,0.0,87,0.00,,,0.00,Wunderground v.1.15,2013-10-23 12:46:00,
2013-10-23 08:51:00,43.6,39.7,29.71,NE,53,0.0,0.0,86,0.00,,,0.00,Wunderground v.1.15,2013-10-23 12:51:00,
2013-10-23 08:57:00,44.2,39.4,29.71,NE,53,0.0,0.0,83,0.00,,,0.00,Wunderground v.1.15,2013-10-23 12:57:00,
2013-10-23 09:02:00,44.9,38.8,29.71,East,97,0.0,2.0,79,0.00,,,0.00,Wunderground v.1.15,2013-10-23 13:02:00,
2013-10-23 09:09:00,45.8,38.7,29.71,SW,235,1.0,3.0,76,0.00,,,0.00,Wunderground v.1.15,2013-10-23 13:09:00,
2013-10-23 09:14:00,46.5,37.6,29.71,WSW,246,2.0,3.0,71,0.00,,,0.00,Wunderground v.1.15,2013-10-23 13:14:00,
2013-10-23 09:20:00,47.1,33.5,29.71,WSW,248,3.0,10.0,59,0.00,,,0.00,Wunderground v.1.15,2013-10-23 13:20:00,
2013-10-23 09:25:00,48.0,33.5,29.71,SW,230,4.0,4.0,57,0.00,,,0.00,Wunderground v.1.15,2013-10-23 13:25:00,
2013-10-23 09:31:00,48.6,31.8,29.71,SSW,199,4.0,6.0,52,0.00,,,0.00,Wunderground v.1.15,2013-10-23 13:31:00,
2013-10-23 09:36:00,48.9,32.0,29.72,WSW,245,5.0,19.0,52,0.00,,,0.00,Wunderground v.1.15,2013-10-23 13:36:00,
2013-10-23 09:41:00,48.9,32.0,29.72,NW,307,5.0,19.0,52,0.00,,,0.00,Wunderground v.1.15,2013-10-23 13:41:00,
2013-10-23 09:48:00,48.9,32.0,29.72,WNW,300,3.0,19.0,52,0.00,,,0.00,Wunderground v.1.15,2013-10-23 13:48:00,
2013-10-23 09:53:00,49.2,32.8,29.72,West,269,3.0,3.0,53,0.00,,,0.00,Wunderground v.1.15,2013-10-23 13:53:00,
2013-10-23 09:59:00,49.6,30.2,29.72,SW,225,3.0,19.0,47,0.00,,,0.00,Wunderground v.1.15,2013-10-23 13:59:00,
2013-10-23 10:04:00,49.6,30.7,29.72,NW,317,4.0,21.0,48,0.00,,,0.00,Wunderground v.1.15,2013-10-23 14:04:00,
2013-10-23 10:10:00,49.5,30.1,29.72,WNW,292,2.0,21.0,47,0.00,,,0.00,Wunderground v.1.15,2013-10-23 14:10:00,
2013-10-23 10:15:00,49.5,30.6,29.72,SSW,198,2.0,21.0,48,0.00,,,0.00,Wunderground v.1.15,2013-10-23 14:15:00,
2013-10-23 10:21:00,49.9,31.0,29.72,SW,232,1.0,21.0,48,0.00,,,0.00,Wunderground v.1.15,2013-10-23 14:21:00,
2013-10-23 10:50:00,51.3,29.5,29.73,NNE,27,3.0,15.0,43,0.00,,,0.00,Wunderground v.1.15,2013-10-23 14:50:00,
2013-10-23 10:55:00,51.6,29.8,29.73,SSE,161,3.0,15.0,43,0.00,,,0.00,Wunderground v.1.15,2013-10-23 14:55:00,
2013-10-23 11:01:00,52.0,29.0,29.73,WNW,295,2.0,2.0,41,0.00,,,0.00,Wunderground v.1.15,2013-10-23 15:01:00,
2013-10-23 11:06:00,51.9,29.5,29.73,NNW,336,2.0,17.0,42,0.00,,,0.00,Wunderground v.1.15,2013-10-23 15:06:00,
2013-10-23 11:12:00,51.6,28.6,29.73,NNW,331,3.0,17.0,41,0.00,,,0.00,Wunderground v.1.15,2013-10-23 15:12:00,
2013-10-23 11:17:00,51.6,28.6,29.74,NNW,327,2.0,17.0,41,0.00,,,0.00,Wunderground v.1.15,2013-10-23 15:17:00,
2013-10-23 11:23:00,51.9,28.9,29.74,SW,229,3.0,17.0,41,0.00,,,0.00,Wunderground v.1.15,2013-10-23 15:23:00,
2013-10-23 11:28:00,51.6,30.4,29.74,NW,321,4.0,17.0,44,0.00,,,0.00,Wunderground v.1.15,2013-10-23 15:28:00,
2013-10-23 11:34:00,51.7,31.6,29.74,NNW,334,4.0,4.0,46,0.00,,,0.00,Wunderground v.1.15,2013-10-23 15:34:00,
2013-10-23 11:40:00,51.9,32.8,29.74,NNW,338,3.0,14.0,48,0.00,,,0.00,Wunderground v.1.15,2013-10-23 15:40:00,
2013-10-23 11:45:00,51.9,33.3,29.74,NW,319,2.0,14.0,49,0.00,,,0.00,Wunderground v.1.15,2013-10-23 15:45:00,
2013-10-23 11:51:00,51.7,32.1,29.74,NW,321,2.0,14.0,47,0.00,,,0.00,Wunderground v.1.15,2013-10-23 15:51:00,
2013-10-23 11:56:00,51.9,31.7,29.74,NW,313,2.0,14.0,46,0.00,,,0.00,Wunderground v.1.15,2013-10-23 15:56:00,
2013-10-23 12:02:00,52.5,31.8,29.74,NW,312,2.0,14.0,45,0.00,,,0.00,Wunderground v.1.15,2013-10-23 16:02:00,
2013-10-23 12:08:00,52.5,29.5,29.74,WNW,301,4.0,10.0,41,0.00,,,0.00,Wunderground v.1.15,2013-10-23 16:08:00,
2013-10-23 12:14:00,52.0,30.7,29.74,West,275,6.0,6.0,44,0.00,,,0.00,Wunderground v.1.15,2013-10-23 16:14:00,
2013-10-23 12:19:00,51.9,31.2,29.74,NW,305,4.0,16.0,45,0.00,,,0.00,Wunderground v.1.15,2013-10-23 16:19:00,
2013-10-23 12:24:00,52.2,30.9,29.74,WNW,290,4.0,10.0,44,0.00,,,0.00,Wunderground v.1.15,2013-10-23 16:24:00,
2013-10-23 12:30:00,52.2,30.9,29.74,NW,326,4.0,14.0,44,0.00,,,0.00,Wunderground v.1.15,2013-10-23 16:30:00,
2013-10-23 12:35:00,52.5,33.4,29.74,NW,309,3.0,21.0,48,0.00,,,0.00,Wunderground v.1.15,2013-10-23 16:35:00,
2013-10-23 12:41:00,52.2,34.1,29.74,NW,326,2.0,21.0,50,0.00,,,0.00,Wunderground v.1.15,2013-10-23 16:41:00,
2013-10-23 12:47:00,52.0,32.4,29.75,WNW,286,3.0,21.0,47,0.00,,,0.00,Wunderground v.1.15,2013-10-23 16:47:00,
2013-10-23 12:52:00,52.0,33.9,29.75,NW,321,2.0,21.0,50,0.00,,,0.00,Wunderground v.1.15,2013-10-23 16:52:00,
2013-10-23 12:58:00,52.3,33.7,29.75,NW,304,2.0,21.0,49,0.00,,,0.00,Wunderground v.1.15,2013-10-23 16:58:00,
2013-10-23 13:04:00,51.9,32.8,29.76,NW,308,2.0,14.0,48,0.00,,,0.00,Wunderground v.1.15,2013-10-23 17:04:00,
2013-10-23 13:10:00,52.0,33.4,29.76,WNW,300,1.0,14.0,49,0.00,,,0.00,Wunderground v.1.15,2013-10-23 17:10:00,
2013-10-23 13:16:00,52.3,31.6,29.76,NNW,331,1.0,14.0,45,0.00,,,0.00,Wunderground v.1.15,2013-10-23 17:16:00,
2013-10-23 13:22:00,52.0,31.3,29.76,WNW,303,2.0,14.0,45,0.00,,,0.00,Wunderground v.1.15,2013-10-23 17:22:00,
2013-10-23 13:28:00,52.0,31.3,29.76,NNW,329,1.0,14.0,45,0.00,,,0.00,Wunderground v.1.15,2013-10-23 17:28:00,
2013-10-23 13:34:00,52.8,32.0,29.76,NNW,344,0.0,6.0,45,0.00,,,0.00,Wunderground v.1.15,2013-10-23 17:34:00,
2013-10-23 13:39:00,52.8,32.6,29.76,NNW,333,1.0,6.0,46,0.00,,,0.00,Wunderground v.1.15,2013-10-23 17:39:00,
2013-10-23 13:45:00,53.2,32.9,29.76,West,259,1.0,6.0,46,0.00,,,0.00,Wunderground v.1.15,2013-10-23 17:45:00,
2013-10-23 13:51:00,52.6,31.3,29.77,West,275,2.0,6.0,44,0.00,,,0.00,Wunderground v.1.15,2013-10-23 17:51:00,
2013-10-23 13:56:00,52.5,31.8,29.77,North,355,2.0,7.0,45,0.00,,,0.00,Wunderground v.1.15,2013-10-23 17:56:00,
2013-10-23 14:01:00,52.2,30.9,29.78,NNW,329,1.0,7.0,44,0.00,,,0.00,Wunderground v.1.15,2013-10-23 18:01:00,
2013-10-23 14:07:00,52.0,32.4,29.78,NNW,330,1.0,13.0,47,0.00,,,0.00,Wunderground v.1.15,2013-10-23 18:07:00,
2013-10-23 14:12:00,51.6,30.9,29.78,NNW,330,2.0,13.0,45,0.00,,,0.00,Wunderground v.1.15,2013-10-23 18:12:00,
2013-10-23 14:18:00,51.3,31.7,29.78,NW,307,2.0,13.0,47,0.00,,,0.00,Wunderground v.1.15,2013-10-23 18:18:00,
2013-10-23 14:23:00,51.3,31.2,29.78,NW,324,1.0,1.0,46,0.00,,,0.00,Wunderground v.1.15,2013-10-23 18:23:00,
2013-10-23 14:29:00,51.4,32.3,29.78,NW,325,1.0,13.0,48,0.00,,,0.00,Wunderground v.1.15,2013-10-23 18:29:00,
2013-10-23 14:34:00,52.0,30.7,29.78,NNW,329,1.0,8.0,44,0.00,,,0.00,Wunderground v.1.15,2013-10-23 18:34:00,
2013-10-23 14:40:00,51.7,30.5,29.78,NNW,336,2.0,8.0,44,0.00,,,0.00,Wunderground v.1.15,2013-10-23 18:40:00,
2013-10-23 14:45:00,51.0,31.5,29.78,WSW,247,2.0,13.0,47,0.00,,,0.00,Wunderground v.1.15,2013-10-23 18:45:00,
2013-10-23 14:50:00,50.8,30.7,29.79,North,355,2.0,13.0,46,0.00,,,0.00,Wunderground v.1.15,2013-10-23 18:50:00,
2013-10-23 14:56:00,50.2,31.8,29.79,NNW,333,2.0,8.0,49,0.00,,,0.00,Wunderground v.1.15,2013-10-23 18:56:00,
2013-10-23 15:01:00,49.6,30.2,29.80,NNW,331,2.0,8.0,47,0.00,,,0.00,Wunderground v.1.15,2013-10-23 19:01:00,
2013-10-23 15:07:00,49.9,30.5,29.80,NW,321,1.0,15.0,47,0.00,,,0.00,Wunderground v.1.15,2013-10-23 19:07:00,
2013-10-23 15:13:00,50.4,30.4,29.80,NW,306,1.0,15.0,46,0.00,,,0.00,Wunderground v.1.15,2013-10-23 19:13:00,
2013-10-23 15:19:00,50.2,29.7,29.80,NNW,334,2.0,15.0,45,0.00,,,0.00,Wunderground v.1.15,2013-10-23 19:19:00,
2013-10-23 15:24:00,50.1,29.6,29.80,NNW,343,2.0,2.0,45,0.00,,,0.00,Wunderground v.1.15,2013-10-23 19:24:00,
2013-10-23 15:29:00,49.6,28.6,29.80,NW,311,2.0,15.0,44,0.00,,,0.00,Wunderground v.1.15,2013-10-23 19:29:00,
2013-10-23 15:35:00,48.9,30.6,29.82,NNW,348,2.0,7.0,49,0.00,,,0.00,Wunderground v.1.15,2013-10-23 19:35:00,
2013-10-23 15:40:00,49.5,30.6,29.82,West,271,2.0,9.0,48,0.00,,,0.00,Wunderground v.1.15,2013-10-23 19:40:00,
2013-10-23 15:47:00,49.8,30.9,29.82,NNE,27,1.0,7.0,48,0.00,,,0.00,Wunderground v.1.15,2013-10-23 19:47:00,
2013-10-23 15:52:00,49.2,30.3,29.82,SSW,209,2.0,7.0,48,0.00,,,0.00,Wunderground v.1.15,2013-10-23 19:52:00,
2013-10-23 15:58:00,49.1,30.2,29.82,South,172,1.0,7.0,48,0.00,,,0.00,Wunderground v.1.15,2013-10-23 19:58:00,
2013-10-23 16:03:00,49.1,30.2,29.82,NW,312,1.0,16.0,48,0.00,,,0.00,Wunderground v.1.15,2013-10-23 20:03:00,
2013-10-23 16:09:00,48.9,30.1,29.82,NNW,343,2.0,16.0,48,0.00,,,0.00,Wunderground v.1.15,2013-10-23 20:09:00,
2013-10-23 16:14:00,48.6,29.3,29.82,NW,306,2.0,16.0,47,0.00,,,0.00,Wunderground v.1.15,2013-10-23 20:14:00,
2013-10-23 16:20:00,48.2,30.4,29.84,NW,307,2.0,16.0,50,0.00,,,0.00,Wunderground v.1.15,2013-10-23 20:20:00,
2013-10-23 16:25:00,47.6,30.3,29.84,NNW,347,2.0,16.0,51,0.00,,,0.00,Wunderground v.1.15,2013-10-23 20:25:00,
2013-10-23 16:31:00,47.6,29.4,29.84,WNW,282,1.0,16.0,49,0.00,,,0.00,Wunderground v.1.15,2013-10-23 20:31:00,
2013-10-23 16:37:00,48.2,29.9,29.84,WNW,284,1.0,9.0,49,0.00,,,0.00,Wunderground v.1.15,2013-10-23 20:37:00,
2013-10-23 16:43:00,48.0,28.2,29.84,NW,308,1.0,9.0,46,0.00,,,0.00,Wunderground v.1.15,2013-10-23 20:43:00,
2013-10-23 16:48:00,47.6,29.4,29.85,North,5,1.0,9.0,49,0.00,,,0.00,Wunderground v.1.15,2013-10-23 20:48:00,
2013-10-23 16:54:00,47.3,29.6,29.85,West,277,1.0,1.0,50,0.00,,,0.00,Wunderground v.1.15,2013-10-23 20:54:00,
2013-10-23 17:00:00,47.1,28.9,29.85,NNW,331,1.0,9.0,49,0.00,,,0.00,Wunderground v.1.15,2013-10-23 21:00:00,
2013-10-23 17:06:00,46.5,29.3,29.86,WNW,294,1.0,7.0,51,0.00,,,0.00,Wunderground v.1.15,2013-10-23 21:06:00,
2013-10-23 17:12:00,46.7,30.0,29.86,NNW,345,1.0,7.0,52,0.00,,,0.00,Wunderground v.1.15,2013-10-23 21:12:00,
2013-10-23 17:18:00,47.0,29.8,29.86,NNW,327,0.0,7.0,51,0.00,,,0.00,Wunderground v.1.15,2013-10-23 21:18:00,
2013-10-23 17:23:00,47.0,29.8,29.86,NNW,333,0.0,7.0,51,0.00,,,0.00,Wunderground v.1.15,2013-10-23 21:23:00,
2013-10-23 17:29:00,46.4,29.7,29.86,WNW,296,0.0,7.0,52,0.00,,,0.00,Wunderground v.1.15,2013-10-23 21:29:00,
2013-10-23 17:34:00,46.1,29.0,29.88,NNW,336,0.0,5.0,51,0.00,,,0.00,Wunderground v.1.15,2013-10-23 21:34:00,
2013-10-23 17:40:00,45.5,28.9,29.88,WNW,296,1.0,5.0,52,0.00,,,0.00,Wunderground v.1.15,2013-10-23 21:40:00,
2013-10-23 17:46:00,45.1,29.4,29.88,NW,319,0.0,5.0,54,0.00,,,0.00,Wunderground v.1.15,2013-10-23 21:46:00,
2013-10-23 17:52:00,45.2,29.5,29.88,SSW,200,1.0,5.0,54,0.00,,,0.00,Wunderground v.1.15,2013-10-23 21:52:00,
2013-10-23 17:57:00,45.1,29.4,29.88,NNW,330,1.0,5.0,54,0.00,,,0.00,Wunderground v.1.15,2013-10-23 21:57:00,
2013-10-23 18:03:00,44.6,30.3,29.89,SW,214,0.0,6.0,57,0.00,,,0.00,Wunderground v.1.15,2013-10-23 22:03:00,
2013-10-23 18:08:00,44.1,29.8,29.89,NNW,329,1.0,6.0,57,0.00,,,0.00,Wunderground v.1.15,2013-10-23 22:08:00,
2013-10-23 18:14:00,43.5,29.7,29.89,SSW,210,1.0,6.0,58,0.00,,,0.00,Wunderground v.1.15,2013-10-23 22:14:00,
2013-10-23 18:20:00,42.9,30.0,29.89,West,263,1.0,6.0,60,0.00,,,0.00,Wunderground v.1.15,2013-10-23 22:20:00,
2013-10-23 18:26:00,42.3,29.4,29.89,NW,325,0.0,6.0,60,0.00,,,0.00,Wunderground v.1.15,2013-10-23 22:26:00,
2013-10-23 18:32:00,41.8,29.3,29.91,WSW,244,0.0,6.0,61,0.00,,,0.00,Wunderground v.1.15,2013-10-23 22:32:00,
2013-10-23 18:38:00,41.1,29.1,29.91,WNW,298,0.0,7.0,62,0.00,,,0.00,Wunderground v.1.15,2013-10-23 22:38:00,
2013-10-23 18:44:00,40.5,28.9,29.91,WNW,298,0.0,7.0,63,0.00,,,0.00,Wunderground v.1.15,2013-10-23 22:44:00,
2013-10-23 18:49:00,40.1,28.9,29.91,WNW,301,0.0,7.0,64,0.00,,,0.00,Wunderground v.1.15,2013-10-23 22:49:00,
2013-10-23 18:55:00,39.6,28.8,29.91,WSW,246,1.0,7.0,65,0.00,,,0.00,Wunderground v.1.15,2013-10-23 22:55:00,
2013-10-23 19:00:00,39.5,29.1,29.91,WSW,247,1.0,7.0,66,0.00,,,0.00,Wunderground v.1.15,2013-10-23 23:00:00,
2013-10-23 19:05:00,39.3,28.9,29.92,WSW,247,0.0,11.0,66,0.00,,,0.00,Wunderground v.1.15,2013-10-23 23:05:00,
2013-10-23 19:10:00,39.2,28.8,29.92,WNW,284,0.0,11.0,66,0.00,,,0.00,Wunderground v.1.15,2013-10-23 23:10:00,
2013-10-23 19:17:00,38.9,28.9,29.93,SSW,202,1.0,11.0,67,0.00,,,0.00,Wunderground v.1.15,2013-10-23 23:17:00,
2013-10-23 19:22:00,38.8,28.8,29.93,SW,223,1.0,11.0,67,0.00,,,0.00,Wunderground v.1.15,2013-10-23 23:22:00,
2013-10-23 19:28:00,38.6,28.2,29.93,SW,225,0.0,11.0,66,0.00,,,0.00,Wunderground v.1.15,2013-10-23 23:28:00,
2013-10-23 19:33:00,38.5,28.1,29.93,East,91,1.0,1.0,66,0.00,,,0.00,Wunderground v.1.15,2013-10-23 23:33:00,
2013-10-23 19:39:00,38.3,28.3,29.93,WSW,252,1.0,12.0,67,0.00,,,0.00,Wunderground v.1.15,2013-10-23 23:39:00,
2013-10-23 19:45:00,38.2,28.2,29.93,WSW,242,1.0,12.0,67,0.00,,,0.00,Wunderground v.1.15,2013-10-23 23:45:00,
2013-10-23 19:50:00,38.2,28.6,29.94,West,271,2.0,15.0,68,0.00,,,0.00,Wunderground v.1.15,2013-10-23 23:50:00,
2013-10-23 19:56:00,38.0,28.0,29.94,South,184,1.0,12.0,67,0.00,,,0.00,Wunderground v.1.15,2013-10-23 23:56:00,
2013-10-23 20:01:00,37.9,27.9,29.94,SW,221,1.0,12.0,67,0.00,,,0.00,Wunderground v.1.15,2013-10-24 00:01:00,
2013-10-23 20:07:00,37.8,27.8,29.94,WSW,238,1.0,15.0,67,0.00,,,0.00,Wunderground v.1.15,2013-10-24 00:07:00,
2013-10-23 20:12:00,37.6,27.6,29.94,SW,236,1.0,15.0,67,0.00,,,0.00,Wunderground v.1.15,2013-10-24 00:12:00,
2013-10-23 20:18:00,37.6,28.0,29.95,SW,219,0.0,15.0,68,0.00,,,0.00,Wunderground v.1.15,2013-10-24 00:18:00,
2013-10-23 20:23:00,37.5,27.9,29.95,WSW,241,0.0,15.0,68,0.00,,,0.00,Wunderground v.1.15,2013-10-24 00:23:00,
2013-10-23 20:28:00,37.5,27.9,29.95,WSW,247,1.0,15.0,68,0.00,,,0.00,Wunderground v.1.15,2013-10-24 00:28:00,
2013-10-23 20:34:00,37.3,27.7,29.96,WSW,247,0.0,5.0,68,0.00,,,0.00,Wunderground v.1.15,2013-10-24 00:34:00,
2013-10-23 20:40:00,37.3,27.3,29.96,SW,230,0.0,5.0,67,0.00,,,0.00,Wunderground v.1.15,2013-10-24 00:40:00,
2013-10-23 20:45:00,37.3,27.3,29.96,SW,235,1.0,5.0,67,0.00,,,0.00,Wunderground v.1.15,2013-10-24 00:45:00,
2013-10-23 20:51:00,37.3,27.7,29.96,SW,234,1.0,5.0,68,0.00,,,0.00,Wunderground v.1.15,2013-10-24 00:51:00,
2013-10-23 20:56:00,37.2,27.6,29.96,SW,231,0.0,5.0,68,0.00,,,0.00,Wunderground v.1.15,2013-10-24 00:56:00,
2013-10-23 21:02:00,37.2,27.2,29.96,SW,231,0.0,5.0,67,0.00,,,0.00,Wunderground v.1.15,2013-10-24 01:02:00,
2013-10-23 21:07:00,37.0,27.1,29.96,SW,234,1.0,4.0,67,0.00,,,0.00,Wunderground v.1.15,2013-10-24 01:07:00,
2013-10-23 21:13:00,37.0,27.1,29.96,SW,234,0.0,4.0,67,0.00,,,0.00,Wunderground v.1.15,2013-10-24 01:13:00,
2013-10-23 21:18:00,36.9,26.6,29.96,SW,234,0.0,4.0,66,0.00,,,0.00,Wunderground v.1.15,2013-10-24 01:18:00,
2013-10-23 21:24:00,36.8,26.9,29.96,SW,234,0.0,4.0,67,0.00,,,0.00,Wunderground v.1.15,2013-10-24 01:24:00,
2013-10-23 21:29:00,36.8,26.9,29.96,SW,234,0.0,4.0,67,0.00,,,0.00,Wunderground v.1.15,2013-10-24 01:29:00,
2013-10-23 21:35:00,36.8,26.9,29.97,SW,228,1.0,5.0,67,0.00,,,0.00,Wunderground v.1.15,2013-10-24 01:35:00,
2013-10-23 21:41:00,36.9,27.0,29.97,West,263,1.0,5.0,67,0.00,,,0.00,Wunderground v.1.15,2013-10-24 01:41:00,
2013-10-23 21:47:00,37.0,27.1,29.98,WNW,296,2.0,5.0,67,0.00,,,0.00,Wunderground v.1.15,2013-10-24 01:47:00,
2013-10-23 21:53:00,37.2,26.9,29.98,NNW,329,2.0,5.0,66,0.00,,,0.00,Wunderground v.1.15,2013-10-24 01:53:00,
2013-10-23 21:58:00,37.2,26.9,29.98,WNW,290,1.0,5.0,66,0.00,,,0.00,Wunderground v.1.15,2013-10-24 01:58:00,
2013-10-23 22:04:00,37.2,26.5,29.98,WSW,248,1.0,1.0,65,0.00,,,0.00,Wunderground v.1.15,2013-10-24 02:04:00,
2013-10-23 22:09:00,37.0,26.3,29.98,NW,313,1.0,13.0,65,0.00,,,0.00,Wunderground v.1.15,2013-10-24 02:09:00,
2013-10-23 22:15:00,37.0,26.3,29.98,WNW,302,1.0,13.0,65,0.00,,,0.00,Wunderground v.1.15,2013-10-24 02:15:00,
2013-10-23 22:20:00,36.9,25.9,29.98,NW,326,1.0,13.0,64,0.00,,,0.00,Wunderground v.1.15,2013-10-24 02:20:00,
2013-10-23 22:26:00,36.8,26.1,29.98,NW,304,1.0,13.0,65,0.00,,,0.00,Wunderground v.1.15,2013-10-24 02:26:00,
2013-10-23 22:32:00,36.6,25.9,29.98,NW,317,0.0,13.0,65,0.00,,,0.00,Wunderground v.1.15,2013-10-24 02:32:00,
2013-10-23 22:38:00,36.5,26.2,29.98,NNW,336,0.0,10.0,66,0.00,,,0.00,Wunderground v.1.15,2013-10-24 02:38:00,
2013-10-23 22:43:00,36.3,26.4,29.98,NNW,330,0.0,10.0,67,0.00,,,0.00,Wunderground v.1.15,2013-10-24 02:43:00,
2013-10-23 22:49:00,36.2,26.3,29.99,NNW,330,0.0,10.0,67,0.00,,,0.00,Wunderground v.1.15,2013-10-24 02:49:00,
2013-10-23 22:54:00,36.0,26.1,29.99,SW,224,0.0,10.0,67,0.00,,,0.00,Wunderground v.1.15,2013-10-24 02:54:00,
2013-10-23 23:00:00,36.0,26.1,29.99,SW,221,1.0,10.0,67,0.00,,,0.00,Wunderground v.1.15,2013-10-24 03:00:00,
2013-10-23 23:05:00,35.9,26.4,30.00,WSW,249,2.0,10.0,68,0.00,,,0.00,Wunderground v.1.15,2013-10-24 03:05:00,
2013-10-23 23:10:00,35.9,26.4,30.00,WSW,249,1.0,10.0,68,0.00,,,0.00,Wunderground v.1.15,2013-10-24 03:10:00,
2013-10-23 23:16:00,35.8,26.3,30.00,WSW,237,0.0,10.0,68,0.00,,,0.00,Wunderground v.1.15,2013-10-24 03:16:00,
2013-10-23 23:22:00,35.6,26.1,30.00,WSW,246,1.0,10.0,68,0.00,,,0.00,Wunderground v.1.15,2013-10-24 03:22:00,
2013-10-23 23:28:00,35.6,26.4,30.00,WSW,238,1.0,10.0,69,0.00,,,0.00,Wunderground v.1.15,2013-10-24 03:28:00,
2013-10-23 23:33:00,35.5,26.3,30.00,SW,236,1.0,1.0,69,0.00,,,0.00,Wunderground v.1.15,2013-10-24 03:33:00,
2013-10-23 23:39:00,35.3,26.1,30.00,WSW,244,2.0,5.0,69,0.00,,,0.00,Wunderground v.1.15,2013-10-24 03:39:00,
2013-10-23 23:44:00,35.2,26.4,30.00,WSW,251,2.0,5.0,70,0.00,,,0.00,Wunderground v.1.15,2013-10-24 03:44:00,
2013-10-23 23:50:00,35.2,26.4,29.99,WSW,252,0.0,5.0,70,0.00,,,0.00,Wunderground v.1.15,2013-10-24 03:50:00,
2013-10-23 23:55:00,35.0,26.2,29.99,WSW,240,0.0,5.0,70,0.00,,,0.00,Wunderground v.1.15,2013-10-24 03:55:00,